Skip Page Navigation
NASA JPL Caltech
NASA Logo - Jet Propulsion Laboratory + View the NASA Portal
+ Center for Near-Earth Object Studies
JPL Home Earth Solar System Stars & Galaxies Technology
JPL Solar System Dynamics
BODIES ORBITS EPHEMERIDES TOOLS PHYSICAL DATA DISCOVERY FAQ SITE MAP
IMPORTANT: The SSD Announcement email list is now available. Major changes are coming in the near future, including possible hostname and/or URL changes. To be notified of such changes, subscribe to this email list.

Please visit this page for more details.


JPL Small-Body Database Browser
Search: [ help ]  
97391 (2000 AZ100)
Classification: Main-belt Asteroid          SPK-ID: 2097391
Ephemeris | Orbit Diagram | Orbital Elements | Mission Design | Physical Parameters | Discovery Circumstances | Close-Approach Data ]

[ show orbit diagram ]
Orbital Elements at Epoch 2458600.5 (2019-Apr-27.0) TDB
Reference: JPL 14 (heliocentric ecliptic J2000)
 Element Value Uncertainty (1-sigma)   Units 
e .2680523453922634 6.5247e-08  
a 2.587438296934753 2.0468e-08 au
q 1.893869392883629 1.7898e-07 au
i 7.153620328889128 5.6013e-06 deg
node 184.4417686364745 4.2741e-05 deg
peri 178.4580772236899 4.5797e-05 deg
M 272.8431750106313 2.3368e-05 deg
tp 2458968.546193162355
(2020-Apr-29.04619316)
0.00010277 TDB
period 1520.209456397816
4.16
1.8039e-05
4.939e-08
d
yr
n .2368094728558203 2.8099e-09 deg/d
Q 3.281007200985877 2.5955e-08 au
  Orbit Determination Parameters
   # obs. used (total)      633  
   data-arc span      7280 days (19.93 yr)  
   first obs. used      1999-09-18  
   last obs. used      2019-08-24  
   planetary ephem.      DE431  
   SB-pert. ephem.      SB431-N16  
   condition code      0  
   norm. resid. RMS      .5939  
   source      ORB  
   producer      Otto Matic  
   solution date      2019-Sep-24 03:02:30  

Additional Information
 Earth MOID = .890679 au 
 Jupiter MOID = 2.17671 au 
 T_jup = 3.359 
[ show covariance matrix ]

Ephemeris | Orbit Diagram | Orbital Elements | Mission Design | Physical Parameters | Discovery Circumstances | Close-Approach Data ]

Physical Parameter Table
Parameter Symbol Value Units Sigma Reference Notes
absolute magnitude H 15.1   n/a MPO264037  

97391 (2000 AZ100)          Discovered 2000-Jan-05 by LINEAR at Socorro
Reference: 20050224/Numbers.arcLast Updated: 2005-02-28

[ show close-approach data ]
Ephemeris | Orbit Diagram | Orbital Elements | Mission Design | Physical Parameters | Discovery Circumstances | Close-Approach Data ]
ABOUT SSD CREDITS/AWARDS PRIVACY/COPYRIGHT GLOSSARY LINKS
FirstGov
(server date/time)  
NASA Home Page
Site Manager:   Ryan S. Park
Webmaster  Alan B. Chamberlin